Time,TemperatureF,DewpointF,PressureIn,WindDirection,WindDirectionDegrees,WindSpeedMPH,WindSpeedGustMPH,Humidity,HourlyPrecipIn,Conditions,Clouds,dailyrainin,SoftwareType,DateUTC
2013-05-06 00:00:00,44.6,40.7,28.85,NNW,338,2.9,4.0,86,0.00,,---,0.00,VWS V14.01,2013-05-06 05:00:00,
2013-05-06 00:02:00,44.4,40.8,28.85,NNW,338,2.2,2.2,87,0.00,,---,0.00,VWS V14.01,2013-05-06 05:02:00,
2013-05-06 00:05:00,44.6,41.0,28.85,NNW,338,2.0,4.0,87,0.00,,---,0.00,VWS V14.01,2013-05-06 05:05:00,
2013-05-06 00:07:00,44.2,40.9,28.88,NW,315,4.0,5.6,88,0.00,,---,0.00,VWS V14.01,2013-05-06 05:07:00,
2013-05-06 00:10:00,44.4,40.8,28.88,NNW,338,3.4,3.4,87,0.00,,---,0.00,VWS V14.01,2013-05-06 05:10:00,
2013-05-06 00:12:00,44.1,40.5,28.88,NW,315,3.8,4.3,87,0.00,,---,0.00,VWS V14.01,2013-05-06 05:12:00,
2013-05-06 00:15:00,44.2,40.9,28.88,NW,315,4.0,5.6,88,0.00,,---,0.00,VWS V14.01,2013-05-06 05:15:00,
2013-05-06 00:17:00,43.9,40.3,28.88,NNW,338,3.6,4.5,87,0.00,,---,0.00,VWS V14.01,2013-05-06 05:17:00,
2013-05-06 00:20:00,43.9,40.3,28.88,NW,315,4.5,4.5,87,0.00,,---,0.00,VWS V14.01,2013-05-06 05:20:00,
2013-05-06 00:22:00,43.9,40.3,28.88,NW,315,4.0,4.0,87,0.00,,---,0.00,VWS V14.01,2013-05-06 05:22:00,
2013-05-06 00:25:00,43.9,40.3,28.88,NW,315,3.4,4.5,87,0.00,,---,0.00,VWS V14.01,2013-05-06 05:25:00,
2013-05-06 00:27:00,43.7,40.1,28.88,WNW,292,3.8,4.3,87,0.00,,---,0.00,VWS V14.01,2013-05-06 05:27:00,
2013-05-06 00:30:00,43.9,40.3,28.88,NW,315,3.4,4.3,87,0.00,,---,0.00,VWS V14.01,2013-05-06 05:30:00,
2013-05-06 00:32:00,43.5,39.9,28.88,NW,315,3.1,6.0,87,0.00,,---,0.00,VWS V14.01,2013-05-06 05:32:00,
2013-05-06 00:35:00,43.5,39.9,28.88,NNW,338,3.6,4.3,87,0.00,,---,0.00,VWS V14.01,2013-05-06 05:35:00,
2013-05-06 00:37:00,43.2,39.6,28.88,WNW,292,2.9,4.0,87,0.00,,---,0.00,VWS V14.01,2013-05-06 05:37:00,
2013-05-06 00:40:00,43.3,39.7,28.88,NW,315,3.1,6.0,87,0.00,,---,0.00,VWS V14.01,2013-05-06 05:40:00,
2013-05-06 00:42:00,43.2,39.8,28.88,WNW,292,4.5,4.9,88,0.00,,---,0.00,VWS V14.01,2013-05-06 05:42:00,
2013-05-06 00:45:00,43.2,39.6,28.88,WNW,292,3.1,4.0,87,0.00,,---,0.00,VWS V14.01,2013-05-06 05:45:00,
2013-05-06 00:47:00,43.0,40.2,28.88,WNW,292,3.1,5.4,90,0.00,,---,0.00,VWS V14.01,2013-05-06 05:47:00,
2013-05-06 00:50:00,43.2,40.1,28.88,WSW,248,4.0,4.9,89,0.00,,---,0.00,VWS V14.01,2013-05-06 05:50:00,
2013-05-06 00:52:00,43.0,40.2,28.88,NW,315,3.1,3.8,90,0.00,,---,0.00,VWS V14.01,2013-05-06 05:52:00,
2013-05-06 00:55:00,43.0,40.2,28.88,WNW,292,3.1,5.4,90,0.00,,---,0.00,VWS V14.01,2013-05-06 05:55:00,
2013-05-06 00:57:00,43.0,40.0,28.88,NNW,338,2.0,2.7,89,0.00,,---,0.00,VWS V14.01,2013-05-06 05:57:00,
2013-05-06 01:00:00,43.0,40.0,28.88,NNW,338,2.7,3.8,89,0.00,,---,0.00,VWS V14.01,2013-05-06 06:00:00,
2013-05-06 01:02:00,42.8,39.8,28.88,NNW,338,2.2,2.7,89,0.00,,---,0.00,VWS V14.01,2013-05-06 06:02:00,
2013-05-06 01:07:00,42.8,39.8,28.88,NNW,338,2.2,3.1,89,0.00,,---,0.00,VWS V14.01,2013-05-06 06:07:00,
2013-05-06 01:10:00,42.8,39.8,28.88,NW,315,3.1,3.1,89,0.00,,---,0.00,VWS V14.01,2013-05-06 06:10:00,
2013-05-06 01:12:00,42.8,39.8,28.88,NNW,338,2.7,2.9,89,0.00,,---,0.00,VWS V14.01,2013-05-06 06:12:00,
2013-05-06 01:15:00,42.8,39.8,28.88,NNW,338,2.2,3.1,89,0.00,,---,0.00,VWS V14.01,2013-05-06 06:15:00,
2013-05-06 01:17:00,42.6,39.9,28.88,NNW,338,4.0,4.0,90,0.00,,---,0.00,VWS V14.01,2013-05-06 06:17:00,
2013-05-06 01:20:00,42.6,39.9,28.88,NW,315,3.1,3.4,90,0.00,,---,0.00,VWS V14.01,2013-05-06 06:20:00,
2013-05-06 01:22:00,42.4,39.7,28.88,NW,315,2.7,3.8,90,0.00,,---,0.00,VWS V14.01,2013-05-06 06:22:00,
2013-05-06 01:25:00,42.4,39.7,28.88,NW,315,3.8,4.3,90,0.00,,---,0.00,VWS V14.01,2013-05-06 06:25:00,
2013-05-06 01:27:00,42.4,39.7,28.88,NNW,338,1.6,2.5,90,0.00,,---,0.00,VWS V14.01,2013-05-06 06:27:00,
2013-05-06 01:30:00,42.4,39.7,28.88,NNW,338,2.5,3.8,90,0.00,,---,0.00,VWS V14.01,2013-05-06 06:30:00,
2013-05-06 01:32:00,42.3,39.5,28.88,NNW,338,1.1,2.2,90,0.00,,---,0.00,VWS V14.01,2013-05-06 06:32:00,
2013-05-06 01:35:00,42.4,39.7,28.88,North,0,1.1,2.5,90,0.00,,---,0.00,VWS V14.01,2013-05-06 06:35:00,
2013-05-06 01:37:00,41.5,38.5,28.88,NNW,338,2.0,2.2,89,0.00,,---,0.00,VWS V14.01,2013-05-06 06:37:00,
2013-05-06 01:40:00,42.1,39.4,28.88,NNW,338,0.0,2.2,90,0.00,,---,0.00,VWS V14.01,2013-05-06 06:40:00,
2013-05-06 01:42:00,41.2,38.2,28.88,NNW,338,1.6,2.0,89,0.00,,---,0.00,VWS V14.01,2013-05-06 06:42:00,
2013-05-06 01:45:00,41.4,38.4,28.88,NNW,338,1.6,2.2,89,0.00,,---,0.00,VWS V14.01,2013-05-06 06:45:00,
2013-05-06 01:47:00,41.0,38.0,28.88,NNW,338,2.2,3.6,89,0.00,,---,0.00,VWS V14.01,2013-05-06 06:47:00,
2013-05-06 01:50:00,41.2,38.2,28.88,NNW,338,1.3,2.2,89,0.00,,---,0.00,VWS V14.01,2013-05-06 06:50:00,
2013-05-06 01:52:00,41.0,38.3,28.85,NW,315,2.7,3.6,90,0.00,,---,0.00,VWS V14.01,2013-05-06 06:52:00,
2013-05-06 01:55:00,41.0,38.0,28.85,NNW,338,2.5,3.6,89,0.00,,---,0.00,VWS V14.01,2013-05-06 06:55:00,
2013-05-06 01:57:00,41.2,38.5,28.85,NNW,338,2.5,3.4,90,0.00,,---,0.00,VWS V14.01,2013-05-06 06:57:00,
2013-05-06 02:00:00,41.0,38.3,28.85,NW,315,2.9,3.6,90,0.00,,---,0.00,VWS V14.01,2013-05-06 07:00:00,
2013-05-06 02:02:00,41.2,38.5,28.85,NW,315,3.8,3.8,90,0.00,,---,0.00,VWS V14.01,2013-05-06 07:02:00,
2013-05-06 02:05:00,41.2,38.5,28.85,WNW,292,2.5,3.4,90,0.00,,---,0.00,VWS V14.01,2013-05-06 07:05:00,
2013-05-06 02:07:00,41.2,38.8,28.88,WNW,292,5.6,5.6,91,0.00,,---,0.00,VWS V14.01,2013-05-06 07:07:00,
2013-05-06 02:10:00,41.2,38.8,28.88,WNW,292,3.4,4.3,91,0.00,,---,0.00,VWS V14.01,2013-05-06 07:10:00,
2013-05-06 02:12:00,41.0,38.6,28.88,West,270,4.0,5.4,91,0.00,,---,0.00,VWS V14.01,2013-05-06 07:12:00,
2013-05-06 02:15:00,41.2,38.8,28.88,WNW,292,4.3,5.6,91,0.00,,---,0.00,VWS V14.01,2013-05-06 07:15:00,
2013-05-06 02:17:00,41.2,39.0,28.88,WNW,292,3.6,4.9,92,0.00,,---,0.00,VWS V14.01,2013-05-06 07:17:00,
2013-05-06 02:20:00,41.0,38.9,28.88,NNW,338,4.0,5.4,92,0.00,,---,0.00,VWS V14.01,2013-05-06 07:20:00,
2013-05-06 02:22:00,41.2,39.3,28.85,NW,315,4.3,4.5,93,0.00,,---,0.00,VWS V14.01,2013-05-06 07:22:00,
2013-05-06 02:25:00,41.2,39.3,28.85,NW,315,3.4,4.9,93,0.00,,---,0.00,VWS V14.01,2013-05-06 07:25:00,
2013-05-06 02:27:00,41.2,39.3,28.85,WNW,292,3.8,3.8,93,0.00,,---,0.00,VWS V14.01,2013-05-06 07:27:00,
2013-05-06 02:30:00,41.2,39.3,28.85,WNW,292,3.4,4.7,93,0.00,,---,0.00,VWS V14.01,2013-05-06 07:30:00,
2013-05-06 02:32:00,41.0,39.1,28.85,WNW,292,1.6,3.8,93,0.00,,---,0.00,VWS V14.01,2013-05-06 07:32:00,
2013-05-06 02:35:00,41.0,39.1,28.85,WNW,292,3.6,4.7,93,0.00,,---,0.00,VWS V14.01,2013-05-06 07:35:00,
2013-05-06 02:37:00,40.6,38.8,28.85,WNW,292,4.0,4.0,93,0.00,,---,0.00,VWS V14.01,2013-05-06 07:37:00,
2013-05-06 02:40:00,40.6,38.8,28.85,WNW,292,0.0,3.8,93,0.00,,---,0.00,VWS V14.01,2013-05-06 07:40:00,
2013-05-06 02:42:00,40.6,38.8,28.85,WSW,248,3.1,3.8,93,0.00,,---,0.00,VWS V14.01,2013-05-06 07:42:00,
2013-05-06 02:45:00,40.6,38.8,28.85,WSW,248,3.4,4.0,93,0.00,,---,0.00,VWS V14.01,2013-05-06 07:45:00,
2013-05-06 02:47:00,40.6,39.0,28.85,West,270,1.6,3.4,94,0.00,,---,0.00,VWS V14.01,2013-05-06 07:47:00,
2013-05-06 02:50:00,40.6,39.0,28.85,WSW,248,3.4,3.8,94,0.00,,---,0.00,VWS V14.01,2013-05-06 07:50:00,
2013-05-06 02:52:00,41.0,39.4,28.85,NW,315,1.6,2.9,94,0.00,,---,0.00,VWS V14.01,2013-05-06 07:52:00,
2013-05-06 02:55:00,40.8,39.5,28.85,WNW,292,2.5,4.3,95,0.00,,---,0.00,VWS V14.01,2013-05-06 07:55:00,
2013-05-06 02:57:00,40.6,39.3,28.85,NNW,338,2.2,2.7,95,0.00,,---,0.00,VWS V14.01,2013-05-06 07:57:00,
2013-05-06 03:00:00,41.0,39.4,28.85,NNW,338,2.0,2.9,94,0.00,,---,0.00,VWS V14.01,2013-05-06 08:00:00,
2013-05-06 03:02:00,40.5,39.1,28.85,NW,315,2.2,2.9,95,0.00,,---,0.00,VWS V14.01,2013-05-06 08:02:00,
2013-05-06 03:05:00,40.6,39.3,28.85,NW,315,1.1,3.1,95,0.00,,---,0.00,VWS V14.01,2013-05-06 08:05:00,
2013-05-06 03:07:00,40.5,39.1,28.88,NNW,338,0.0,2.9,95,0.00,,---,0.00,VWS V14.01,2013-05-06 08:07:00,
2013-05-06 03:12:00,40.5,39.1,28.88,NW,315,2.5,3.4,95,0.00,,---,0.00,VWS V14.01,2013-05-06 08:12:00,
2013-05-06 03:15:00,40.5,39.1,28.88,NNW,338,2.0,2.9,95,0.00,,---,0.00,VWS V14.01,2013-05-06 08:15:00,
2013-05-06 03:17:00,40.5,38.9,28.88,NNW,338,2.5,2.9,94,0.00,,---,0.00,VWS V14.01,2013-05-06 08:17:00,
2013-05-06 03:20:00,40.5,38.9,28.88,NW,315,2.7,3.4,94,0.00,,---,0.00,VWS V14.01,2013-05-06 08:20:00,
2013-05-06 03:22:00,40.5,38.9,28.88,NW,315,3.4,3.4,94,0.00,,---,0.00,VWS V14.01,2013-05-06 08:22:00,
2013-05-06 03:25:00,40.5,38.9,28.88,NNW,338,2.5,3.1,94,0.00,,---,0.00,VWS V14.01,2013-05-06 08:25:00,
2013-05-06 03:27:00,40.5,38.9,28.88,NW,315,3.4,3.6,94,0.00,,---,0.00,VWS V14.01,2013-05-06 08:27:00,
2013-05-06 03:30:00,40.5,38.9,28.88,NNW,338,2.5,4.0,94,0.00,,---,0.00,VWS V14.01,2013-05-06 08:30:00,
2013-05-06 03:32:00,40.3,38.7,28.88,NW,315,3.6,4.3,94,0.00,,---,0.00,VWS V14.01,2013-05-06 08:32:00,
2013-05-06 03:35:00,40.3,38.7,28.88,NW,315,4.3,4.3,94,0.00,,---,0.00,VWS V14.01,2013-05-06 08:35:00,
2013-05-06 03:37:00,40.3,38.7,28.88,WNW,292,4.0,4.5,94,0.00,,---,0.00,VWS V14.01,2013-05-06 08:37:00,
2013-05-06 03:40:00,40.3,38.7,28.88,WNW,292,3.6,4.3,94,0.00,,---,0.00,VWS V14.01,2013-05-06 08:40:00,
2013-05-06 03:42:00,40.1,38.5,28.88,NW,315,3.4,3.8,94,0.00,,---,0.00,VWS V14.01,2013-05-06 08:42:00,
2013-05-06 03:45:00,40.3,38.7,28.88,NW,315,2.7,4.7,94,0.00,,---,0.00,VWS V14.01,2013-05-06 08:45:00,
2013-05-06 03:47:00,40.1,38.5,28.88,NW,315,2.9,3.4,94,0.00,,---,0.00,VWS V14.01,2013-05-06 08:47:00,
2013-05-06 03:50:00,40.1,38.5,28.88,WNW,292,3.4,5.4,94,0.00,,---,0.00,VWS V14.01,2013-05-06 08:50:00,
2013-05-06 03:52:00,40.3,38.7,28.85,NW,315,2.7,3.8,94,0.00,,---,0.00,VWS V14.01,2013-05-06 08:52:00,
2013-05-06 03:55:00,40.1,38.5,28.85,NNW,338,2.5,3.6,94,0.00,,---,0.00,VWS V14.01,2013-05-06 08:55:00,
2013-05-06 03:57:00,40.1,38.8,28.85,NW,315,2.7,3.4,95,0.00,,---,0.00,VWS V14.01,2013-05-06 08:57:00,
2013-05-06 04:00:00,40.1,38.8,28.85,NW,315,3.4,3.8,95,0.00,,---,0.00,VWS V14.01,2013-05-06 09:00:00,
2013-05-06 04:02:00,40.1,38.8,28.85,NNW,338,1.3,2.7,95,0.00,,---,0.00,VWS V14.01,2013-05-06 09:02:00,
2013-05-06 04:05:00,40.1,38.8,28.85,NNW,338,2.5,3.4,95,0.00,,---,0.00,VWS V14.01,2013-05-06 09:05:00,
2013-05-06 04:07:00,40.1,38.8,28.85,North,0,1.6,2.9,95,0.00,,---,0.00,VWS V14.01,2013-05-06 09:07:00,
2013-05-06 04:10:00,40.1,38.8,28.85,NNW,338,2.7,2.7,95,0.00,,---,0.00,VWS V14.01,2013-05-06 09:10:00,
2013-05-06 04:12:00,39.9,38.6,28.85,NNW,338,2.5,2.7,95,0.00,,---,0.00,VWS V14.01,2013-05-06 09:12:00,
2013-05-06 04:15:00,39.9,38.6,28.85,NNW,338,2.5,2.9,95,0.00,,---,0.00,VWS V14.01,2013-05-06 09:15:00,
2013-05-06 04:17:00,39.9,38.3,28.85,NNW,338,2.5,2.9,94,0.00,,---,0.00,VWS V14.01,2013-05-06 09:17:00,
2013-05-06 04:20:00,39.9,38.3,28.85,NNW,338,2.9,2.9,94,0.00,,---,0.00,VWS V14.01,2013-05-06 09:20:00,
2013-05-06 04:22:00,39.7,38.2,28.85,NNW,338,3.1,4.3,94,0.00,,---,0.00,VWS V14.01,2013-05-06 09:22:00,
2013-05-06 04:25:00,39.7,38.2,28.85,NNW,338,3.1,3.1,94,0.00,,---,0.00,VWS V14.01,2013-05-06 09:25:00,
2013-05-06 04:27:00,39.4,37.8,28.85,NNW,338,2.2,2.7,94,0.00,,---,0.00,VWS V14.01,2013-05-06 09:27:00,
2013-05-06 04:30:00,39.6,38.0,28.85,NNW,338,2.0,4.3,94,0.00,,---,0.00,VWS V14.01,2013-05-06 09:30:00,
2013-05-06 04:32:00,38.8,37.3,28.85,NW,315,2.9,2.9,94,0.00,,---,0.00,VWS V14.01,2013-05-06 09:32:00,
2013-05-06 04:35:00,39.0,37.4,28.85,NNW,338,2.2,2.7,94,0.00,,---,0.00,VWS V14.01,2013-05-06 09:35:00,
2013-05-06 04:37:00,38.7,37.1,28.85,NW,315,2.5,3.4,94,0.00,,---,0.00,VWS V14.01,2013-05-06 09:37:00,
2013-05-06 04:40:00,38.8,37.3,28.85,WNW,292,3.4,3.4,94,0.00,,---,0.00,VWS V14.01,2013-05-06 09:40:00,
2013-05-06 04:42:00,38.7,37.1,28.85,NW,315,2.2,3.4,94,0.00,,---,0.00,VWS V14.01,2013-05-06 09:42:00,
2013-05-06 04:45:00,38.7,37.1,28.85,NNW,338,3.1,3.4,94,0.00,,---,0.00,VWS V14.01,2013-05-06 09:45:00,
2013-05-06 04:47:00,38.5,36.9,28.85,NW,315,3.4,3.4,94,0.00,,---,0.00,VWS V14.01,2013-05-06 09:47:00,
2013-05-06 04:50:00,38.7,37.1,28.85,NW,315,2.7,3.4,94,0.00,,---,0.00,VWS V14.01,2013-05-06 09:50:00,
2013-05-06 04:52:00,38.5,36.9,28.88,WNW,292,3.4,3.6,94,0.00,,---,0.00,VWS V14.01,2013-05-06 09:52:00,
2013-05-06 04:55:00,38.5,36.9,28.88,WNW,292,2.9,3.4,94,0.00,,---,0.00,VWS V14.01,2013-05-06 09:55:00,
2013-05-06 04:57:00,38.5,36.9,28.88,WNW,292,3.6,3.6,94,0.00,,---,0.00,VWS V14.01,2013-05-06 09:57:00,
2013-05-06 05:00:00,38.5,36.9,28.88,NW,315,3.1,4.0,94,0.00,,---,0.00,VWS V14.01,2013-05-06 10:00:00,
2013-05-06 05:02:00,38.7,37.3,28.88,NW,315,2.7,4.3,95,0.00,,---,0.00,VWS V14.01,2013-05-06 10:02:00,
2013-05-06 05:05:00,38.5,37.2,28.88,WNW,292,4.3,4.3,95,0.00,,---,0.00,VWS V14.01,2013-05-06 10:05:00,
2013-05-06 05:07:00,38.8,37.5,28.88,WNW,292,3.4,3.8,95,0.00,,---,0.00,VWS V14.01,2013-05-06 10:07:00,
2013-05-06 05:10:00,38.7,37.3,28.88,NW,315,3.6,4.3,95,0.00,,---,0.00,VWS V14.01,2013-05-06 10:10:00,
2013-05-06 05:12:00,39.0,37.7,28.88,WNW,292,3.1,4.3,95,0.00,,---,0.00,VWS V14.01,2013-05-06 10:12:00,
2013-05-06 05:15:00,38.8,37.5,28.88,WNW,292,3.4,3.8,95,0.00,,---,0.00,VWS V14.01,2013-05-06 10:15:00,
2013-05-06 05:17:00,39.4,38.3,28.88,WNW,292,2.5,3.1,96,0.00,,---,0.00,VWS V14.01,2013-05-06 10:17:00,
2013-05-06 05:20:00,39.2,37.9,28.88,WNW,292,2.0,4.3,95,0.00,,---,0.00,VWS V14.01,2013-05-06 10:20:00,
2013-05-06 05:22:00,39.4,38.3,28.88,WNW,292,1.3,2.5,96,0.00,,---,0.00,VWS V14.01,2013-05-06 10:22:00,
2013-05-06 05:25:00,39.4,38.3,28.88,WNW,292,2.5,3.1,96,0.00,,---,0.00,VWS V14.01,2013-05-06 10:25:00,
2013-05-06 05:27:00,39.4,38.3,28.88,WNW,292,0.0,0.0,96,0.00,,---,0.00,VWS V14.01,2013-05-06 10:27:00,
2013-05-06 05:30:00,39.4,38.3,28.88,WNW,292,0.0,2.5,96,0.00,,---,0.00,VWS V14.01,2013-05-06 10:30:00,
2013-05-06 05:32:00,39.6,38.5,28.88,WNW,292,0.0,0.0,96,0.00,,---,0.00,VWS V14.01,2013-05-06 10:32:00,
2013-05-06 05:35:00,39.6,38.5,28.88,WNW,292,0.0,0.0,96,0.00,,---,0.00,VWS V14.01,2013-05-06 10:35:00,
2013-05-06 05:37:00,39.4,38.3,28.88,NW,315,1.3,1.6,96,0.00,,---,0.00,VWS V14.01,2013-05-06 10:37:00,
2013-05-06 05:40:00,39.4,38.3,28.88,WNW,292,0.0,0.0,96,0.00,,---,0.00,VWS V14.01,2013-05-06 10:40:00,
2013-05-06 05:42:00,39.4,38.3,28.88,NW,315,0.0,0.0,96,0.00,,---,0.00,VWS V14.01,2013-05-06 10:42:00,
2013-05-06 05:45:00,39.4,38.3,28.88,NW,315,0.0,1.6,96,0.00,,---,0.00,VWS V14.01,2013-05-06 10:45:00,
2013-05-06 05:47:00,39.4,38.3,28.88,NNW,338,0.0,0.0,96,0.00,,---,0.00,VWS V14.01,2013-05-06 10:47:00,
2013-05-06 05:50:00,39.4,38.3,28.88,NW,315,0.0,0.0,96,0.00,,---,0.00,VWS V14.01,2013-05-06 10:50:00,
2013-05-06 05:52:00,38.7,37.6,28.88,NW,315,0.0,1.3,96,0.00,,---,0.00,VWS V14.01,2013-05-06 10:52:00,
2013-05-06 05:55:00,39.2,38.2,28.88,NW,315,0.0,0.0,96,0.00,,---,0.00,VWS V14.01,2013-05-06 10:55:00,
2013-05-06 05:57:00,38.3,37.0,28.88,NNW,338,0.0,0.0,95,0.00,,---,0.00,VWS V14.01,2013-05-06 10:57:00,
2013-05-06 06:00:00,38.3,37.0,28.88,NW,315,0.0,1.3,95,0.00,,---,0.00,VWS V14.01,2013-05-06 11:00:00,
2013-05-06 06:02:00,38.1,36.8,28.88,NW,315,0.0,0.0,95,0.00,,---,0.00,VWS V14.01,2013-05-06 11:02:00,
2013-05-06 06:05:00,38.1,36.8,28.88,NW,315,0.0,0.0,95,0.00,,---,0.00,VWS V14.01,2013-05-06 11:05:00,
2013-05-06 06:07:00,38.1,36.8,28.88,NNE,22,0.0,0.0,95,0.00,,---,0.00,VWS V14.01,2013-05-06 11:07:00,
2013-05-06 06:10:00,38.3,37.0,28.88,NW,315,0.0,0.0,95,0.00,,---,0.00,VWS V14.01,2013-05-06 11:10:00,
2013-05-06 06:12:00,37.6,36.3,28.88,NNW,338,0.0,0.0,95,0.00,,---,0.00,VWS V14.01,2013-05-06 11:12:00,
2013-05-06 06:15:00,37.9,36.6,28.88,NNE,22,0.0,0.0,95,0.00,,---,0.00,VWS V14.01,2013-05-06 11:15:00,
2013-05-06 06:17:00,37.8,36.5,28.88,NNW,338,0.0,2.0,95,0.00,,---,0.00,VWS V14.01,2013-05-06 11:17:00,
2013-05-06 06:20:00,37.6,36.3,28.88,NNW,338,1.3,1.3,95,0.00,,---,0.00,VWS V14.01,2013-05-06 11:20:00,
2013-05-06 06:22:00,37.9,36.6,28.88,WNW,292,0.0,0.0,95,0.00,,---,0.00,VWS V14.01,2013-05-06 11:22:00,
2013-05-06 06:25:00,37.9,36.6,28.88,NNW,338,0.0,2.0,95,0.00,,---,0.00,VWS V14.01,2013-05-06 11:25:00,
2013-05-06 06:27:00,38.5,37.2,28.88,NW,315,0.0,2.5,95,0.00,,---,0.00,VWS V14.01,2013-05-06 11:27:00,
2013-05-06 06:30:00,38.1,36.8,28.88,WNW,292,2.5,2.9,95,0.00,,---,0.00,VWS V14.01,2013-05-06 11:30:00,
2013-05-06 06:32:00,38.8,37.8,28.88,WNW,292,2.9,2.9,96,0.00,,---,0.00,VWS V14.01,2013-05-06 11:32:00,
2013-05-06 06:35:00,38.7,37.6,28.88,NNW,338,2.0,2.5,96,0.00,,---,0.00,VWS V14.01,2013-05-06 11:35:00,
2013-05-06 06:37:00,38.8,37.8,28.88,NW,315,2.5,4.0,96,0.00,,---,0.00,VWS V14.01,2013-05-06 11:37:00,
2013-05-06 06:40:00,38.7,37.6,28.88,WNW,292,3.4,3.6,96,0.00,,---,0.00,VWS V14.01,2013-05-06 11:40:00,
2013-05-06 06:42:00,39.2,37.9,28.88,NW,315,2.2,3.4,95,0.00,,---,0.00,VWS V14.01,2013-05-06 11:42:00,
2013-05-06 06:45:00,39.0,38.0,28.88,WNW,292,2.9,4.0,96,0.00,,---,0.00,VWS V14.01,2013-05-06 11:45:00,
2013-05-06 06:47:00,39.4,38.1,28.88,NW,315,2.0,3.1,95,0.00,,---,0.00,VWS V14.01,2013-05-06 11:47:00,
2013-05-06 06:50:00,39.4,38.1,28.88,NW,315,3.1,3.4,95,0.00,,---,0.00,VWS V14.01,2013-05-06 11:50:00,
2013-05-06 06:52:00,39.9,38.9,28.88,NNW,338,0.0,1.3,96,0.00,,---,0.00,VWS V14.01,2013-05-06 11:52:00,
2013-05-06 06:55:00,39.6,38.2,28.88,NNW,338,1.3,3.1,95,0.00,,---,0.00,VWS V14.01,2013-05-06 11:55:00,
2013-05-06 06:57:00,40.5,39.4,28.88,North,0,1.6,2.9,96,0.00,,---,0.00,VWS V14.01,2013-05-06 11:57:00,
2013-05-06 07:00:00,40.3,39.2,28.88,NNW,338,2.9,2.9,96,0.00,,---,0.00,VWS V14.01,2013-05-06 12:00:00,
2013-05-06 07:02:00,40.8,39.8,28.88,NW,315,0.0,2.2,96,0.00,,---,0.00,VWS V14.01,2013-05-06 12:02:00,
2013-05-06 07:05:00,40.6,39.6,28.88,NNW,338,0.9,2.9,96,0.00,,---,0.00,VWS V14.01,2013-05-06 12:05:00,
2013-05-06 07:07:00,41.7,40.7,28.88,NW,315,0.0,2.2,96,0.00,,---,0.00,VWS V14.01,2013-05-06 12:07:00,
2013-05-06 07:10:00,41.5,40.5,28.88,NW,315,2.2,2.7,96,0.00,,---,0.00,VWS V14.01,2013-05-06 12:10:00,
2013-05-06 07:12:00,42.1,40.5,28.88,NW,315,0.0,1.6,94,0.00,,---,0.00,VWS V14.01,2013-05-06 12:12:00,
2013-05-06 07:15:00,42.8,41.5,28.88,NW,315,0.0,2.5,95,0.00,,---,0.00,VWS V14.01,2013-05-06 12:15:00,
2013-05-06 07:17:00,41.4,39.8,28.88,NW,315,0.0,0.0,94,0.00,,---,0.00,VWS V14.01,2013-05-06 12:17:00,
2013-05-06 07:20:00,41.7,40.1,28.88,NW,315,0.0,1.6,94,0.00,,---,0.00,VWS V14.01,2013-05-06 12:20:00,
2013-05-06 07:22:00,41.2,39.3,28.88,NNW,338,0.0,0.0,93,0.00,,---,0.00,VWS V14.01,2013-05-06 12:22:00,
2013-05-06 07:25:00,41.2,39.3,28.88,NW,315,0.0,0.0,93,0.00,,---,0.00,VWS V14.01,2013-05-06 12:25:00,
2013-05-06 07:26:00,41.2,39.6,28.88,NNW,338,0.0,0.0,94,0.00,,---,0.00,VWS V14.01,2013-05-06 12:26:00,
2013-05-06 07:30:00,41.2,39.6,28.88,NNW,338,0.0,0.0,94,0.00,,---,0.00,VWS V14.01,2013-05-06 12:30:00,
2013-05-06 07:31:00,41.4,39.8,28.88,NNW,338,0.0,0.0,94,0.00,,---,0.00,VWS V14.01,2013-05-06 12:31:00,
2013-05-06 07:35:00,41.4,39.8,28.88,NNW,338,0.0,0.0,94,0.00,,---,0.00,VWS V14.01,2013-05-06 12:35:00,
2013-05-06 07:36:00,41.5,40.0,28.91,NW,315,1.3,1.6,94,0.00,,---,0.00,VWS V14.01,2013-05-06 12:36:00,
2013-05-06 07:40:00,41.5,40.0,28.91,NW,315,0.0,1.6,94,0.00,,---,0.00,VWS V14.01,2013-05-06 12:40:00,
2013-05-06 07:42:00,42.1,40.8,28.91,NNW,338,0.0,1.1,95,0.00,,---,0.00,VWS V14.01,2013-05-06 12:42:00,
2013-05-06 07:45:00,41.9,40.6,28.91,NW,315,0.0,1.6,95,0.00,,---,0.00,VWS V14.01,2013-05-06 12:45:00,
2013-05-06 07:47:00,42.8,41.5,28.91,NNW,338,2.0,2.0,95,0.00,,---,0.00,VWS V14.01,2013-05-06 12:47:00,
2013-05-06 07:50:00,42.3,40.9,28.91,NNW,338,0.0,1.1,95,0.00,,---,0.00,VWS V14.01,2013-05-06 12:50:00,
2013-05-06 07:52:00,43.5,42.2,28.91,North,0,1.6,2.2,95,0.00,,---,0.00,VWS V14.01,2013-05-06 12:52:00,
2013-05-06 07:55:00,43.3,42.0,28.91,NNE,22,2.2,3.1,95,0.00,,---,0.00,VWS V14.01,2013-05-06 12:55:00,
2013-05-06 07:57:00,43.3,41.7,28.91,NE,45,0.0,2.2,94,0.00,,---,0.00,VWS V14.01,2013-05-06 12:57:00,
2013-05-06 08:00:00,43.3,42.0,28.91,NNW,338,0.0,2.2,95,0.00,,---,0.00,VWS V14.01,2013-05-06 13:00:00,
2013-05-06 08:02:00,44.1,42.5,28.91,East,90,0.0,0.0,94,0.00,,---,0.00,VWS V14.01,2013-05-06 13:02:00,
2013-05-06 08:05:00,43.5,41.9,28.91,East,90,0.0,2.2,94,0.00,,---,0.00,VWS V14.01,2013-05-06 13:05:00,
2013-05-06 08:07:00,44.2,42.6,28.91,ENE,68,0.0,0.0,94,0.00,,---,0.00,VWS V14.01,2013-05-06 13:07:00,
2013-05-06 08:10:00,44.1,42.5,28.91,East,90,0.0,0.0,94,0.00,,---,0.00,VWS V14.01,2013-05-06 13:10:00,
2013-05-06 08:12:00,45.1,43.2,28.91,ENE,68,0.0,0.0,93,0.00,,---,0.00,VWS V14.01,2013-05-06 13:12:00,
2013-05-06 08:15:00,44.8,42.9,28.91,ENE,68,0.0,0.0,93,0.00,,---,0.00,VWS V14.01,2013-05-06 13:15:00,
2013-05-06 08:17:00,45.5,43.3,28.91,East,90,2.0,2.2,92,0.00,,---,0.00,VWS V14.01,2013-05-06 13:17:00,
2013-05-06 08:20:00,45.3,43.1,28.91,East,90,1.6,2.0,92,0.00,,---,0.00,VWS V14.01,2013-05-06 13:20:00,
2013-05-06 08:22:00,46.0,43.6,28.88,East,90,0.0,1.6,91,0.00,,---,0.00,VWS V14.01,2013-05-06 13:22:00,
2013-05-06 08:25:00,46.0,43.8,28.88,East,90,1.6,2.2,92,0.00,,---,0.00,VWS V14.01,2013-05-06 13:25:00,
2013-05-06 08:27:00,46.9,44.2,28.88,East,90,2.0,2.0,90,0.00,,---,0.00,VWS V14.01,2013-05-06 13:27:00,
2013-05-06 08:30:00,46.4,43.6,28.88,East,90,1.3,1.6,90,0.00,,---,0.00,VWS V14.01,2013-05-06 13:30:00,
2013-05-06 08:32:00,47.7,45.2,28.88,East,90,1.1,2.5,91,0.00,,---,0.00,VWS V14.01,2013-05-06 13:32:00,
2013-05-06 08:35:00,47.3,44.8,28.88,East,90,2.2,2.5,91,0.00,,---,0.00,VWS V14.01,2013-05-06 13:35:00,
2013-05-06 08:37:00,48.7,45.9,28.88,East,90,2.9,2.9,90,0.00,,---,0.00,VWS V14.01,2013-05-06 13:37:00,
2013-05-06 08:40:00,48.2,45.4,28.88,East,90,2.0,2.5,90,0.00,,---,0.00,VWS V14.01,2013-05-06 13:40:00,
2013-05-06 08:42:00,49.6,46.8,28.88,ESE,112,3.1,3.1,90,0.00,,---,0.00,VWS V14.01,2013-05-06 13:42:00,
2013-05-06 08:45:00,48.9,46.1,28.88,ESE,112,2.5,2.9,90,0.00,,---,0.00,VWS V14.01,2013-05-06 13:45:00,
2013-05-06 08:47:00,50.0,46.9,28.88,ESE,112,1.6,2.0,89,0.00,,---,0.00,VWS V14.01,2013-05-06 13:47:00,
2013-05-06 08:50:00,49.6,46.8,28.88,ESE,112,2.0,3.1,90,0.00,,---,0.00,VWS V14.01,2013-05-06 13:50:00,
2013-05-06 08:52:00,51.3,47.5,28.88,ESE,112,2.9,2.9,87,0.00,,---,0.00,VWS V14.01,2013-05-06 13:52:00,
2013-05-06 08:55:00,50.4,47.0,28.88,ESE,112,2.7,2.7,88,0.00,,---,0.00,VWS V14.01,2013-05-06 13:55:00,
2013-05-06 08:57:00,52.0,47.9,28.88,ESE,112,2.9,3.1,86,0.00,,---,0.00,VWS V14.01,2013-05-06 13:57:00,
2013-05-06 09:00:00,51.8,48.1,28.88,ESE,112,3.1,3.1,87,0.00,,---,0.00,VWS V14.01,2013-05-06 14:00:00,
2013-05-06 09:01:00,53.1,48.7,28.88,ESE,112,3.8,3.8,85,0.00,,---,0.00,VWS V14.01,2013-05-06 14:01:00,
2013-05-06 09:05:00,52.7,48.3,28.88,ESE,112,3.4,3.4,85,0.00,,---,0.00,VWS V14.01,2013-05-06 14:05:00,
2013-05-06 09:06:00,53.2,48.2,28.88,ESE,112,3.1,4.0,83,0.00,,---,0.00,VWS V14.01,2013-05-06 14:06:00,
2013-05-06 09:10:00,53.1,48.0,28.88,ESE,112,4.0,4.3,83,0.00,,---,0.00,VWS V14.01,2013-05-06 14:10:00,
2013-05-06 09:11:00,53.8,48.1,28.88,ESE,112,2.2,2.7,81,0.00,,---,0.00,VWS V14.01,2013-05-06 14:11:00,
2013-05-06 09:15:00,53.2,47.6,28.88,ESE,112,2.5,4.0,81,0.00,,---,0.00,VWS V14.01,2013-05-06 14:15:00,
2013-05-06 09:16:00,54.1,47.8,28.88,East,90,2.2,2.2,79,0.00,,---,0.00,VWS V14.01,2013-05-06 14:16:00,
2013-05-06 09:20:00,53.8,48.1,28.88,ESE,112,1.6,2.7,81,0.00,,---,0.00,VWS V14.01,2013-05-06 14:20:00,
2013-05-06 09:22:00,54.0,47.6,28.88,East,90,2.5,2.7,79,0.00,,---,0.00,VWS V14.01,2013-05-06 14:22:00,
2013-05-06 09:25:00,54.0,47.3,28.88,ESE,112,2.5,2.5,78,0.00,,---,0.00,VWS V14.01,2013-05-06 14:25:00,
2013-05-06 09:27:00,54.0,47.9,28.88,ESE,112,3.4,3.4,80,0.00,,---,0.00,VWS V14.01,2013-05-06 14:27:00,
2013-05-06 09:30:00,53.8,47.8,28.88,ESE,112,2.7,2.7,80,0.00,,---,0.00,VWS V14.01,2013-05-06 14:30:00,
2013-05-06 09:32:00,53.4,46.7,28.88,ESE,112,3.8,4.7,78,0.00,,---,0.00,VWS V14.01,2013-05-06 14:32:00,
2013-05-06 09:35:00,53.8,47.4,28.88,ESE,112,4.0,4.0,79,0.00,,---,0.00,VWS V14.01,2013-05-06 14:35:00,
2013-05-06 09:37:00,53.1,46.4,28.88,ESE,112,3.8,4.0,78,0.00,,---,0.00,VWS V14.01,2013-05-06 14:37:00,
2013-05-06 09:40:00,53.1,46.0,28.88,ESE,112,3.1,4.7,77,0.00,,---,0.00,VWS V14.01,2013-05-06 14:40:00,
2013-05-06 09:42:00,53.2,46.6,28.88,ESE,112,2.2,2.9,78,0.00,,---,0.00,VWS V14.01,2013-05-06 14:42:00,
2013-05-06 09:45:00,53.1,46.4,28.88,ESE,112,2.9,4.0,78,0.00,,---,0.00,VWS V14.01,2013-05-06 14:45:00,
2013-05-06 09:47:00,53.8,47.1,28.88,ESE,112,3.1,3.1,78,0.00,,---,0.00,VWS V14.01,2013-05-06 14:47:00,
2013-05-06 09:50:00,53.4,47.1,28.88,ESE,112,2.2,2.9,79,0.00,,---,0.00,VWS V14.01,2013-05-06 14:50:00,
2013-05-06 09:52:00,54.1,47.1,28.88,ESE,112,3.1,3.4,77,0.00,,---,0.00,VWS V14.01,2013-05-06 14:52:00,
2013-05-06 09:55:00,54.0,46.9,28.88,ESE,112,3.4,3.4,77,0.00,,---,0.00,VWS V14.01,2013-05-06 14:55:00,
2013-05-06 09:57:00,54.5,47.1,28.88,ESE,112,3.8,3.8,76,0.00,,---,0.00,VWS V14.01,2013-05-06 14:57:00,
2013-05-06 10:00:00,54.3,47.3,28.88,ESE,112,2.9,3.4,77,0.00,,---,0.00,VWS V14.01,2013-05-06 15:00:00,
2013-05-06 10:02:00,54.7,46.9,28.88,ESE,112,3.1,3.8,75,0.00,,---,0.00,VWS V14.01,2013-05-06 15:02:00,
2013-05-06 10:05:00,54.5,47.1,28.88,ESE,112,3.8,4.0,76,0.00,,---,0.00,VWS V14.01,2013-05-06 15:05:00,
2013-05-06 10:07:00,54.9,46.7,28.88,ESE,112,4.7,4.7,74,0.00,,---,0.00,VWS V14.01,2013-05-06 15:07:00,
2013-05-06 10:10:00,54.9,46.7,28.88,ESE,112,4.3,4.3,74,0.00,,---,0.00,VWS V14.01,2013-05-06 15:10:00,
2013-05-06 10:12:00,55.2,46.7,28.88,East,90,3.6,4.0,73,0.00,,---,0.00,VWS V14.01,2013-05-06 15:12:00,
2013-05-06 10:15:00,55.0,46.6,28.88,ESE,112,4.0,4.9,73,0.00,,---,0.00,VWS V14.01,2013-05-06 15:15:00,
2013-05-06 10:17:00,56.5,47.6,28.88,SE,135,4.3,4.7,72,0.00,,---,0.00,VWS V14.01,2013-05-06 15:17:00,
2013-05-06 10:20:00,55.8,46.9,28.88,ESE,112,4.3,4.3,72,0.00,,---,0.00,VWS V14.01,2013-05-06 15:20:00,
2013-05-06 10:22:00,57.6,48.2,28.88,ESE,112,2.7,4.0,71,0.00,,---,0.00,VWS V14.01,2013-05-06 15:22:00,
2013-05-06 10:25:00,56.8,47.9,28.88,SE,135,3.8,4.7,72,0.00,,---,0.00,VWS V14.01,2013-05-06 15:25:00,
2013-05-06 10:27:00,58.8,48.7,28.88,ESE,112,3.6,3.8,69,0.00,,---,0.00,VWS V14.01,2013-05-06 15:27:00,
2013-05-06 10:30:00,57.9,47.8,28.88,ESE,112,2.9,4.0,69,0.00,,---,0.00,VWS V14.01,2013-05-06 15:30:00,
2013-05-06 10:32:00,59.7,48.8,28.88,SSE,158,3.1,4.0,67,0.00,,---,0.00,VWS V14.01,2013-05-06 15:32:00,
2013-05-06 10:35:00,59.0,48.5,28.88,ESE,112,4.0,4.0,68,0.00,,---,0.00,VWS V14.01,2013-05-06 15:35:00,
2013-05-06 10:37:00,61.0,49.2,28.88,ESE,112,0.0,3.4,65,0.00,,---,0.00,VWS V14.01,2013-05-06 15:37:00,
2013-05-06 10:40:00,60.4,49.4,28.88,SSE,158,3.4,4.0,67,0.00,,---,0.00,VWS V14.01,2013-05-06 15:40:00,
2013-05-06 10:42:00,61.7,45.4,28.88,WSW,248,3.4,6.0,55,0.00,,---,0.00,VWS V14.01,2013-05-06 15:42:00,
2013-05-06 10:45:00,61.5,48.4,28.88,SSW,202,2.0,3.4,62,0.00,,---,0.00,VWS V14.01,2013-05-06 15:45:00,
2013-05-06 10:47:00,62.1,45.7,28.88,WSW,248,3.8,3.8,55,0.00,,---,0.00,VWS V14.01,2013-05-06 15:47:00,
2013-05-06 10:50:00,61.7,45.9,28.88,WSW,248,0.9,6.0,56,0.00,,---,0.00,VWS V14.01,2013-05-06 15:50:00,
2013-05-06 10:52:00,62.4,45.6,28.88,WSW,248,4.3,5.4,54,0.00,,---,0.00,VWS V14.01,2013-05-06 15:52:00,
2013-05-06 10:55:00,62.4,46.1,28.88,WSW,248,2.9,4.9,55,0.00,,---,0.00,VWS V14.01,2013-05-06 15:55:00,
2013-05-06 10:57:00,63.0,46.1,28.88,SSW,202,3.6,4.5,54,0.00,,---,0.00,VWS V14.01,2013-05-06 15:57:00,
2013-05-06 11:00:00,62.6,45.7,28.88,WSW,248,3.1,5.4,54,0.00,,---,0.00,VWS V14.01,2013-05-06 16:00:00,
2013-05-06 11:02:00,63.5,47.1,28.88,SSW,202,2.2,3.6,55,0.00,,---,0.00,VWS V14.01,2013-05-06 16:02:00,
2013-05-06 11:05:00,63.0,46.1,28.88,NE,45,0.0,4.5,54,0.00,,---,0.00,VWS V14.01,2013-05-06 16:05:00,
2013-05-06 11:07:00,63.3,45.9,28.88,WNW,292,2.0,3.8,53,0.00,,---,0.00,VWS V14.01,2013-05-06 16:07:00,
2013-05-06 11:10:00,63.9,47.9,28.88,SW,225,0.0,3.6,56,0.00,,---,0.00,VWS V14.01,2013-05-06 16:10:00,
2013-05-06 11:12:00,62.2,45.4,28.88,SW,225,3.1,3.6,54,0.00,,---,0.00,VWS V14.01,2013-05-06 16:12:00,
2013-05-06 11:15:00,63.0,45.6,28.88,WSW,248,3.4,3.8,53,0.00,,---,0.00,VWS V14.01,2013-05-06 16:15:00,
2013-05-06 11:17:00,62.2,45.4,28.88,SW,225,3.1,4.0,54,0.00,,---,0.00,VWS V14.01,2013-05-06 16:17:00,
2013-05-06 11:20:00,62.2,45.4,28.88,WSW,248,2.7,3.8,54,0.00,,---,0.00,VWS V14.01,2013-05-06 16:20:00,
2013-05-06 11:22:00,63.0,46.1,28.88,SSW,202,2.2,4.0,54,0.00,,---,0.00,VWS V14.01,2013-05-06 16:22:00,
2013-05-06 11:25:00,62.2,45.4,28.88,North,0,3.4,5.4,54,0.00,,---,0.00,VWS V14.01,2013-05-06 16:25:00,
2013-05-06 11:27:00,63.9,46.4,28.88,SSW,202,2.7,4.3,53,0.00,,---,0.00,VWS V14.01,2013-05-06 16:27:00,
2013-05-06 11:30:00,63.5,46.6,28.88,SW,225,3.6,4.0,54,0.00,,---,0.00,VWS V14.01,2013-05-06 16:30:00,
2013-05-06 11:32:00,64.9,46.4,28.88,WNW,292,2.9,4.9,51,0.00,,---,0.00,VWS V14.01,2013-05-06 16:32:00,
2013-05-06 11:35:00,64.4,46.4,28.88,West,270,4.0,4.3,52,0.00,,---,0.00,VWS V14.01,2013-05-06 16:35:00,
2013-05-06 11:37:00,66.0,46.9,28.88,WNW,292,2.9,5.6,50,0.00,,---,0.00,VWS V14.01,2013-05-06 16:37:00,
2013-05-06 11:40:00,65.8,47.7,28.88,SW,225,1.6,4.9,52,0.00,,---,0.00,VWS V14.01,2013-05-06 16:40:00,
2013-05-06 11:42:00,66.7,47.5,28.88,WNW,292,3.1,5.4,50,0.00,,---,0.00,VWS V14.01,2013-05-06 16:42:00,
2013-05-06 11:45:00,66.0,46.9,28.88,WSW,248,3.1,6.0,50,0.00,,---,0.00,VWS V14.01,2013-05-06 16:45:00,
2013-05-06 11:47:00,66.7,47.0,28.88,WSW,248,3.4,4.9,49,0.00,,---,0.00,VWS V14.01,2013-05-06 16:47:00,
2013-05-06 11:50:00,67.5,48.7,28.88,NNW,338,2.9,5.4,51,0.00,,---,0.00,VWS V14.01,2013-05-06 16:50:00,
2013-05-06 11:52:00,66.0,46.3,28.88,North,0,3.1,7.6,49,0.00,,---,0.00,VWS V14.01,2013-05-06 16:52:00,
2013-05-06 11:55:00,66.0,46.3,28.88,West,270,7.6,7.6,49,0.00,,---,0.00,VWS V14.01,2013-05-06 16:55:00,
2013-05-06 11:57:00,66.0,46.9,28.88,SSW,202,2.9,3.6,50,0.00,,---,0.00,VWS V14.01,2013-05-06 16:57:00,
2013-05-06 12:00:00,66.4,46.7,28.88,West,270,3.6,7.6,49,0.00,,---,0.00,VWS V14.01,2013-05-06 17:00:00,
2013-05-06 12:02:00,66.7,47.5,28.88,SSW,202,2.0,2.7,50,0.00,,---,0.00,VWS V14.01,2013-05-06 17:02:00,
2013-05-06 12:05:00,66.4,46.7,28.88,SSE,158,2.7,3.6,49,0.00,,---,0.00,VWS V14.01,2013-05-06 17:05:00,
2013-05-06 12:06:00,66.4,46.7,28.88,SE,135,2.7,2.7,49,0.00,,---,0.00,VWS V14.01,2013-05-06 17:06:00,
2013-05-06 12:07:00,67.8,47.4,28.88,WNW,292,4.9,6.3,48,0.00,,---,0.00,VWS V14.01,2013-05-06 17:07:00,
2013-05-06 12:10:00,68.4,49.0,28.88,WSW,248,2.0,2.5,50,0.00,,---,0.00,VWS V14.01,2013-05-06 17:10:00,
2013-05-06 12:12:00,67.8,47.4,28.88,SW,225,4.0,4.7,48,0.00,,---,0.00,VWS V14.01,2013-05-06 17:12:00,
2013-05-06 12:15:00,68.0,47.6,28.88,SW,225,4.7,6.5,48,0.00,,---,0.00,VWS V14.01,2013-05-06 17:15:00,
2013-05-06 12:17:00,68.4,47.4,28.88,WSW,248,4.0,4.3,47,0.00,,---,0.00,VWS V14.01,2013-05-06 17:17:00,
2013-05-06 12:20:00,67.8,47.4,28.88,NW,315,3.1,4.7,48,0.00,,---,0.00,VWS V14.01,2013-05-06 17:20:00,
2013-05-06 12:22:00,68.9,47.9,28.85,ESE,112,3.1,3.8,47,0.00,,---,0.00,VWS V14.01,2013-05-06 17:22:00,
2013-05-06 12:25:00,68.4,47.9,28.85,SE,135,3.8,4.3,48,0.00,,---,0.00,VWS V14.01,2013-05-06 17:25:00,
2013-05-06 12:27:00,70.3,49.2,28.85,East,90,2.7,3.6,47,0.00,,---,0.00,VWS V14.01,2013-05-06 17:27:00,
2013-05-06 12:30:00,69.6,49.1,28.85,East,90,3.6,4.7,48,0.00,,---,0.00,VWS V14.01,2013-05-06 17:30:00,
2013-05-06 12:32:00,71.6,50.3,28.85,ESE,112,3.8,4.0,47,0.00,,---,0.00,VWS V14.01,2013-05-06 17:32:00,
2013-05-06 12:35:00,70.5,49.3,28.85,ESE,112,3.6,3.6,47,0.00,,---,0.00,VWS V14.01,2013-05-06 17:35:00,
2013-05-06 12:37:00,74.5,51.8,28.85,ESE,112,4.9,6.7,45,0.00,,---,0.00,VWS V14.01,2013-05-06 17:37:00,
2013-05-06 12:40:00,73.4,51.4,28.85,ESE,112,6.7,6.9,46,0.00,,---,0.00,VWS V14.01,2013-05-06 17:40:00,
2013-05-06 12:42:00,76.5,53.0,28.85,ESE,112,4.3,4.9,44,0.00,,---,0.00,VWS V14.01,2013-05-06 17:42:00,
2013-05-06 12:45:00,75.0,52.3,28.85,ESE,112,3.6,6.7,45,0.00,,---,0.00,VWS V14.01,2013-05-06 17:45:00,
2013-05-06 12:47:00,77.0,52.2,28.85,ENE,68,2.9,4.3,42,0.00,,---,0.00,VWS V14.01,2013-05-06 17:47:00,
2013-05-06 12:50:00,76.8,53.3,28.85,East,90,4.3,4.9,44,0.00,,---,0.00,VWS V14.01,2013-05-06 17:50:00,
2013-05-06 12:52:00,76.5,51.0,28.85,East,90,4.0,4.9,41,0.00,,---,0.00,VWS V14.01,2013-05-06 17:52:00,
2013-05-06 12:55:00,76.8,52.0,28.85,East,90,4.3,4.9,42,0.00,,---,0.00,VWS V14.01,2013-05-06 17:55:00,
2013-05-06 12:57:00,76.3,50.9,28.85,East,90,5.4,5.4,41,0.00,,---,0.00,VWS V14.01,2013-05-06 17:57:00,
2013-05-06 13:00:00,76.3,50.9,28.85,East,90,4.3,5.4,41,0.00,,---,0.00,VWS V14.01,2013-05-06 18:00:00,
2013-05-06 13:02:00,76.8,51.4,28.85,East,90,4.9,6.3,41,0.00,,---,0.00,VWS V14.01,2013-05-06 18:02:00,
2013-05-06 13:05:00,75.9,49.9,28.85,East,90,5.4,5.8,40,0.00,,---,0.00,VWS V14.01,2013-05-06 18:05:00,
2013-05-06 13:07:00,77.5,52.0,28.85,ESE,112,6.0,6.5,41,0.00,,---,0.00,VWS V14.01,2013-05-06 18:07:00,
2013-05-06 13:10:00,77.5,51.3,28.85,ESE,112,6.3,6.3,40,0.00,,---,0.00,VWS V14.01,2013-05-06 18:10:00,
2013-05-06 13:12:00,77.4,50.5,28.85,ESE,112,6.0,6.5,39,0.00,,---,0.00,VWS V14.01,2013-05-06 18:12:00,
2013-05-06 13:15:00,77.5,52.0,28.85,ESE,112,6.5,7.2,41,0.00,,---,0.00,VWS V14.01,2013-05-06 18:15:00,
2013-05-06 13:17:00,77.7,51.5,28.85,ESE,112,6.5,6.5,40,0.00,,---,0.00,VWS V14.01,2013-05-06 18:17:00,
2013-05-06 13:20:00,77.5,51.3,28.85,East,90,5.8,6.5,40,0.00,,---,0.00,VWS V14.01,2013-05-06 18:20:00,
2013-05-06 13:22:00,76.6,49.2,28.88,East,90,4.3,6.3,38,0.00,,---,0.00,VWS V14.01,2013-05-06 18:22:00,
2013-05-06 13:25:00,77.9,51.0,28.88,East,90,5.8,6.7,39,0.00,,---,0.00,VWS V14.01,2013-05-06 18:25:00,
2013-05-06 13:27:00,76.5,49.0,28.88,East,90,5.8,6.3,38,0.00,,---,0.00,VWS V14.01,2013-05-06 18:27:00,
2013-05-06 13:30:00,75.9,48.5,28.88,East,90,5.4,6.5,38,0.00,,---,0.00,VWS V14.01,2013-05-06 18:30:00,
2013-05-06 13:32:00,77.2,50.3,28.88,East,90,5.8,6.0,39,0.00,,---,0.00,VWS V14.01,2013-05-06 18:32:00,
2013-05-06 13:35:00,76.5,49.0,28.88,East,90,6.0,6.3,38,0.00,,---,0.00,VWS V14.01,2013-05-06 18:35:00,
2013-05-06 13:37:00,74.7,48.1,28.85,ESE,112,4.3,5.8,39,0.00,,---,0.00,VWS V14.01,2013-05-06 18:37:00,
2013-05-06 13:40:00,76.6,49.2,28.85,ESE,112,5.4,6.0,38,0.00,,---,0.00,VWS V14.01,2013-05-06 18:40:00,
2013-05-06 13:42:00,75.4,49.4,28.85,East,90,2.5,5.6,40,0.00,,---,0.00,VWS V14.01,2013-05-06 18:42:00,
2013-05-06 13:45:00,75.2,49.2,28.85,East,90,3.1,5.8,40,0.00,,---,0.00,VWS V14.01,2013-05-06 18:45:00,
2013-05-06 13:47:00,75.9,50.5,28.85,ENE,68,1.1,4.0,41,0.00,,---,0.00,VWS V14.01,2013-05-06 18:47:00,
2013-05-06 13:50:00,73.9,48.1,28.85,ENE,68,4.0,5.6,40,0.00,,---,0.00,VWS V14.01,2013-05-06 18:50:00,
2013-05-06 13:52:00,75.4,50.1,28.85,ENE,68,1.3,2.9,41,0.00,,---,0.00,VWS V14.01,2013-05-06 18:52:00,
2013-05-06 13:55:00,76.1,50.7,28.85,NE,45,2.9,4.0,41,0.00,,---,0.00,VWS V14.01,2013-05-06 18:55:00,
2013-05-06 13:57:00,74.5,48.6,28.85,ESE,112,1.3,2.2,40,0.00,,---,0.00,VWS V14.01,2013-05-06 18:57:00,
2013-05-06 14:00:00,76.3,50.9,28.85,ESE,112,1.3,2.9,41,0.00,,---,0.00,VWS V14.01,2013-05-06 19:00:00,
2013-05-06 14:02:00,72.7,48.3,28.85,East,90,2.0,2.5,42,0.00,,---,0.00,VWS V14.01,2013-05-06 19:02:00,
2013-05-06 14:05:00,72.9,48.5,28.85,ENE,68,0.0,2.2,42,0.00,,---,0.00,VWS V14.01,2013-05-06 19:05:00,
2013-05-06 14:07:00,70.9,46.7,28.85,East,90,3.4,3.4,42,0.00,,---,0.00,VWS V14.01,2013-05-06 19:07:00,
2013-05-06 14:10:00,72.0,47.6,28.85,East,90,3.1,3.1,42,0.00,,---,0.00,VWS V14.01,2013-05-06 19:10:00,
2013-05-06 14:12:00,72.5,48.1,28.85,East,90,3.6,4.0,42,0.00,,---,0.00,VWS V14.01,2013-05-06 19:12:00,
2013-05-06 14:15:00,70.9,46.7,28.85,East,90,3.8,3.8,42,0.00,,---,0.00,VWS V14.01,2013-05-06 19:15:00,
2013-05-06 14:17:00,71.1,46.8,28.85,East,90,3.4,3.6,42,0.00,,---,0.00,VWS V14.01,2013-05-06 19:17:00,
2013-05-06 14:20:00,72.7,48.9,28.85,East,90,2.5,4.0,43,0.00,,---,0.00,VWS V14.01,2013-05-06 19:20:00,
2013-05-06 14:22:00,71.2,47.6,28.85,ENE,68,2.2,3.1,43,0.00,,---,0.00,VWS V14.01,2013-05-06 19:22:00,
2013-05-06 14:25:00,70.3,46.8,28.85,East,90,2.9,3.6,43,0.00,,---,0.00,VWS V14.01,2013-05-06 19:25:00,
2013-05-06 14:27:00,73.4,48.9,28.85,East,90,4.3,4.5,42,0.00,,---,0.00,VWS V14.01,2013-05-06 19:27:00,
2013-05-06 14:30:00,72.3,48.6,28.85,East,90,3.1,4.5,43,0.00,,---,0.00,VWS V14.01,2013-05-06 19:30:00,
2013-05-06 14:32:00,73.2,48.8,28.85,East,90,4.3,5.4,42,0.00,,---,0.00,VWS V14.01,2013-05-06 19:32:00,
2013-05-06 14:35:00,73.8,49.3,28.85,East,90,3.6,4.5,42,0.00,,---,0.00,VWS V14.01,2013-05-06 19:35:00,
2013-05-06 14:37:00,74.5,49.9,28.85,East,90,2.7,3.8,42,0.00,,---,0.00,VWS V14.01,2013-05-06 19:37:00,
2013-05-06 14:40:00,73.4,48.9,28.85,East,90,3.8,5.4,42,0.00,,---,0.00,VWS V14.01,2013-05-06 19:40:00,
2013-05-06 14:42:00,73.6,49.1,28.85,East,90,0.0,2.0,42,0.00,,---,0.00,VWS V14.01,2013-05-06 19:42:00,
2013-05-06 14:45:00,74.3,49.8,28.85,SE,135,2.0,3.8,42,0.00,,---,0.00,VWS V14.01,2013-05-06 19:45:00,
2013-05-06 14:47:00,72.0,47.6,28.85,ENE,68,1.3,1.3,42,0.00,,---,0.00,VWS V14.01,2013-05-06 19:47:00,
2013-05-06 14:50:00,73.6,49.1,28.85,NE,45,0.0,2.0,42,0.00,,---,0.00,VWS V14.01,2013-05-06 19:50:00,
2013-05-06 14:52:00,71.2,47.6,28.85,East,90,1.3,2.5,43,0.00,,---,0.00,VWS V14.01,2013-05-06 19:52:00,
2013-05-06 14:55:00,71.4,47.8,28.85,ENE,68,2.5,2.7,43,0.00,,---,0.00,VWS V14.01,2013-05-06 19:55:00,
2013-05-06 14:57:00,73.4,49.6,28.85,North,0,2.2,2.5,43,0.00,,---,0.00,VWS V14.01,2013-05-06 19:57:00,
2013-05-06 15:00:00,72.0,48.3,28.85,East,90,1.1,2.7,43,0.00,,---,0.00,VWS V14.01,2013-05-06 20:00:00,
2013-05-06 15:02:00,72.0,47.6,28.85,WSW,248,1.1,4.0,42,0.00,,---,0.00,VWS V14.01,2013-05-06 20:02:00,
2013-05-06 15:05:00,73.0,48.6,28.85,SW,225,1.6,3.6,42,0.00,,---,0.00,VWS V14.01,2013-05-06 20:05:00,
2013-05-06 15:07:00,72.0,48.3,28.82,SSE,158,0.0,2.9,43,0.00,,---,0.00,VWS V14.01,2013-05-06 20:07:00,
2013-05-06 15:10:00,71.8,47.5,28.82,WNW,292,2.9,4.7,42,0.00,,---,0.00,VWS V14.01,2013-05-06 20:10:00,
2013-05-06 15:12:00,72.9,49.1,28.82,ENE,68,0.9,2.7,43,0.00,,---,0.00,VWS V14.01,2013-05-06 20:12:00,
2013-05-06 15:15:00,72.1,48.4,28.82,East,90,1.3,2.9,43,0.00,,---,0.00,VWS V14.01,2013-05-06 20:15:00,
2013-05-06 15:17:00,72.9,49.1,28.82,WSW,248,3.6,3.6,43,0.00,,---,0.00,VWS V14.01,2013-05-06 20:17:00,
2013-05-06 15:20:00,73.4,49.6,28.82,ENE,68,0.0,2.7,43,0.00,,---,0.00,VWS V14.01,2013-05-06 20:20:00,
2013-05-06 15:22:00,71.6,47.3,28.82,SE,135,2.2,6.0,42,0.00,,---,0.00,VWS V14.01,2013-05-06 20:22:00,
2013-05-06 15:27:00,72.0,47.6,28.82,SSW,202,3.8,6.0,42,0.00,,---,0.00,VWS V14.01,2013-05-06 20:27:00,
2013-05-06 15:30:00,71.8,48.1,28.82,SW,225,4.3,6.0,43,0.00,,---,0.00,VWS V14.01,2013-05-06 20:30:00,
2013-05-06 15:32:00,71.1,47.5,28.82,WSW,248,2.9,6.0,43,0.00,,---,0.00,VWS V14.01,2013-05-06 20:32:00,
2013-05-06 15:35:00,71.6,47.9,28.82,WSW,248,5.4,6.0,43,0.00,,---,0.00,VWS V14.01,2013-05-06 20:35:00,
2013-05-06 15:37:00,71.8,48.1,28.82,ESE,112,3.1,4.9,43,0.00,,---,0.00,VWS V14.01,2013-05-06 20:37:00,
2013-05-06 15:40:00,70.7,47.1,28.82,SSW,202,2.0,6.0,43,0.00,,---,0.00,VWS V14.01,2013-05-06 20:40:00,
2013-05-06 15:42:00,73.6,49.7,28.82,SW,225,2.5,2.5,43,0.00,,---,0.00,VWS V14.01,2013-05-06 20:42:00,
2013-05-06 15:45:00,72.3,48.6,28.82,SE,135,2.0,4.9,43,0.00,,---,0.00,VWS V14.01,2013-05-06 20:45:00,
2013-05-06 15:47:00,73.0,48.6,28.82,SW,225,4.0,6.5,42,0.00,,---,0.00,VWS V14.01,2013-05-06 20:47:00,
2013-05-06 15:50:00,73.9,49.4,28.82,WSW,248,2.7,3.4,42,0.00,,---,0.00,VWS V14.01,2013-05-06 20:50:00,
2013-05-06 15:52:00,72.0,47.6,28.82,WSW,248,4.9,6.5,42,0.00,,---,0.00,VWS V14.01,2013-05-06 20:52:00,
2013-05-06 15:55:00,73.0,48.6,28.82,WSW,248,2.5,6.5,42,0.00,,---,0.00,VWS V14.01,2013-05-06 20:55:00,
2013-05-06 15:57:00,72.0,47.6,28.82,West,270,4.9,7.2,42,0.00,,---,0.00,VWS V14.01,2013-05-06 20:57:00,
2013-05-06 16:00:00,71.8,47.5,28.82,WSW,248,5.8,8.1,42,0.00,,---,0.00,VWS V14.01,2013-05-06 21:00:00,
2013-05-06 16:02:00,72.0,47.6,28.82,WSW,248,5.4,6.5,42,0.00,,---,0.00,VWS V14.01,2013-05-06 21:02:00,
2013-05-06 16:05:00,72.1,47.8,28.82,SW,225,5.6,7.4,42,0.00,,---,0.00,VWS V14.01,2013-05-06 21:05:00,
2013-05-06 16:07:00,72.5,48.1,28.79,WSW,248,5.6,7.8,42,0.00,,---,0.00,VWS V14.01,2013-05-06 21:07:00,
2013-05-06 16:10:00,72.1,47.8,28.79,WSW,248,2.7,6.5,42,0.00,,---,0.00,VWS V14.01,2013-05-06 21:10:00,
2013-05-06 16:12:00,73.2,48.8,28.79,WSW,248,2.5,6.0,42,0.00,,---,0.00,VWS V14.01,2013-05-06 21:12:00,
2013-05-06 16:15:00,73.0,48.6,28.79,West,270,5.8,7.8,42,0.00,,---,0.00,VWS V14.01,2013-05-06 21:15:00,
2013-05-06 16:17:00,73.0,48.0,28.79,WNW,292,8.5,8.7,41,0.00,,---,0.00,VWS V14.01,2013-05-06 21:17:00,
2013-05-06 16:20:00,73.2,48.1,28.79,NW,315,4.3,6.0,41,0.00,,---,0.00,VWS V14.01,2013-05-06 21:20:00,
2013-05-06 16:22:00,73.8,48.0,28.79,WSW,248,4.5,6.5,40,0.00,,---,0.00,VWS V14.01,2013-05-06 21:22:00,
2013-05-06 16:25:00,74.1,48.9,28.79,WSW,248,1.6,8.7,41,0.00,,---,0.00,VWS V14.01,2013-05-06 21:25:00,
2013-05-06 16:27:00,73.6,48.5,28.79,SE,135,2.5,6.0,41,0.00,,---,0.00,VWS V14.01,2013-05-06 21:27:00,
2013-05-06 16:30:00,73.8,48.6,28.79,SW,225,3.8,6.5,41,0.00,,---,0.00,VWS V14.01,2013-05-06 21:30:00,
2013-05-06 16:32:00,74.7,49.4,28.79,NW,315,0.9,4.5,41,0.00,,---,0.00,VWS V14.01,2013-05-06 21:32:00,
2013-05-06 16:35:00,74.1,48.9,28.79,WSW,248,4.5,6.0,41,0.00,,---,0.00,VWS V14.01,2013-05-06 21:35:00,
2013-05-06 16:37:00,74.8,49.6,28.79,ESE,112,2.2,3.1,41,0.00,,---,0.00,VWS V14.01,2013-05-06 21:37:00,
2013-05-06 16:40:00,75.0,49.8,28.79,ENE,68,3.1,4.5,41,0.00,,---,0.00,VWS V14.01,2013-05-06 21:40:00,
2013-05-06 16:42:00,72.7,47.0,28.79,WSW,248,4.3,4.3,40,0.00,,---,0.00,VWS V14.01,2013-05-06 21:42:00,
2013-05-06 16:45:00,73.9,48.1,28.79,WNW,292,3.4,3.4,40,0.00,,---,0.00,VWS V14.01,2013-05-06 21:45:00,
2013-05-06 16:47:00,71.4,46.5,28.79,WNW,292,4.3,4.7,41,0.00,,---,0.00,VWS V14.01,2013-05-06 21:47:00,
2013-05-06 16:50:00,71.6,46.0,28.79,WSW,248,3.1,4.3,40,0.00,,---,0.00,VWS V14.01,2013-05-06 21:50:00,
2013-05-06 16:52:00,70.9,46.7,28.79,SW,225,2.0,4.7,42,0.00,,---,0.00,VWS V14.01,2013-05-06 21:52:00,
2013-05-06 16:55:00,70.7,45.9,28.79,WSW,248,3.8,4.7,41,0.00,,---,0.00,VWS V14.01,2013-05-06 21:55:00,
2013-05-06 16:57:00,72.1,47.8,28.79,WSW,248,2.9,2.9,42,0.00,,---,0.00,VWS V14.01,2013-05-06 21:57:00,
2013-05-06 17:00:00,71.8,47.5,28.79,WNW,292,2.5,4.7,42,0.00,,---,0.00,VWS V14.01,2013-05-06 22:00:00,
2013-05-06 17:02:00,72.7,47.7,28.79,NW,315,3.8,6.3,41,0.00,,---,0.00,VWS V14.01,2013-05-06 22:02:00,
2013-05-06 17:05:00,72.7,48.3,28.79,WNW,292,4.0,5.4,42,0.00,,---,0.00,VWS V14.01,2013-05-06 22:05:00,
2013-05-06 17:07:00,72.3,47.3,28.79,WSW,248,4.5,5.8,41,0.00,,---,0.00,VWS V14.01,2013-05-06 22:07:00,
2013-05-06 17:10:00,73.0,48.6,28.79,WSW,248,3.4,6.3,42,0.00,,---,0.00,VWS V14.01,2013-05-06 22:10:00,
2013-05-06 17:12:00,71.6,46.7,28.79,West,270,4.0,4.0,41,0.00,,---,0.00,VWS V14.01,2013-05-06 22:12:00,
2013-05-06 17:15:00,72.3,47.3,28.79,West,270,1.1,5.8,41,0.00,,---,0.00,VWS V14.01,2013-05-06 22:15:00,
2013-05-06 17:17:00,70.2,46.0,28.79,WSW,248,3.6,5.8,42,0.00,,---,0.00,VWS V14.01,2013-05-06 22:17:00,
2013-05-06 17:22:00,69.3,45.2,28.79,WNW,292,3.8,4.0,42,0.00,,---,0.00,VWS V14.01,2013-05-06 22:22:00,
2013-05-06 17:25:00,69.8,45.7,28.79,WSW,248,3.4,5.8,42,0.00,,---,0.00,VWS V14.01,2013-05-06 22:25:00,
2013-05-06 17:27:00,68.9,45.5,28.79,WNW,292,2.9,4.0,43,0.00,,---,0.00,VWS V14.01,2013-05-06 22:27:00,
2013-05-06 17:30:00,69.1,45.7,28.79,WNW,292,3.6,5.6,43,0.00,,---,0.00,VWS V14.01,2013-05-06 22:30:00,
2013-05-06 17:32:00,69.3,45.8,28.79,NW,315,0.0,2.2,43,0.00,,---,0.00,VWS V14.01,2013-05-06 22:32:00,
2013-05-06 17:35:00,68.9,45.5,28.79,WSW,248,2.2,4.0,43,0.00,,---,0.00,VWS V14.01,2013-05-06 22:35:00,
2013-05-06 17:37:00,70.2,47.2,28.76,NNW,338,3.4,3.6,44,0.00,,---,0.00,VWS V14.01,2013-05-06 22:37:00,
2013-05-06 17:40:00,69.8,46.3,28.76,NNW,338,2.9,3.1,43,0.00,,---,0.00,VWS V14.01,2013-05-06 22:40:00,
2013-05-06 17:42:00,70.9,47.3,28.76,North,0,3.4,3.6,43,0.00,,---,0.00,VWS V14.01,2013-05-06 22:42:00,
2013-05-06 17:45:00,70.5,47.0,28.76,North,0,3.1,3.6,43,0.00,,---,0.00,VWS V14.01,2013-05-06 22:45:00,
2013-05-06 17:47:00,71.2,47.6,28.76,SE,135,0.0,3.4,43,0.00,,---,0.00,VWS V14.01,2013-05-06 22:47:00,
2013-05-06 17:50:00,71.2,47.6,28.76,North,0,3.4,3.6,43,0.00,,---,0.00,VWS V14.01,2013-05-06 22:50:00,
2013-05-06 17:52:00,71.2,47.6,28.79,WSW,248,2.2,3.8,43,0.00,,---,0.00,VWS V14.01,2013-05-06 22:52:00,
2013-05-06 17:55:00,71.2,47.6,28.76,ENE,68,0.0,3.4,43,0.00,,---,0.00,VWS V14.01,2013-05-06 22:55:00,
2013-05-06 17:57:00,70.5,47.0,28.79,WSW,248,3.4,4.0,43,0.00,,---,0.00,VWS V14.01,2013-05-06 22:57:00,
2013-05-06 18:00:00,70.9,47.3,28.79,SW,225,3.4,3.8,43,0.00,,---,0.00,VWS V14.01,2013-05-06 23:00:00,
2013-05-06 18:02:00,70.3,46.8,28.79,WNW,292,4.3,6.3,43,0.00,,---,0.00,VWS V14.01,2013-05-06 23:02:00,
2013-05-06 18:05:00,70.5,47.0,28.79,WNW,292,3.1,4.9,43,0.00,,---,0.00,VWS V14.01,2013-05-06 23:05:00,
2013-05-06 18:07:00,70.0,46.5,28.79,WNW,292,3.6,6.5,43,0.00,,---,0.00,VWS V14.01,2013-05-06 23:07:00,
2013-05-06 18:10:00,70.3,46.2,28.79,West,270,4.9,6.3,42,0.00,,---,0.00,VWS V14.01,2013-05-06 23:10:00,
2013-05-06 18:12:00,70.0,46.5,28.79,WSW,248,0.9,5.6,43,0.00,,---,0.00,VWS V14.01,2013-05-06 23:12:00,
2013-05-06 18:15:00,70.0,46.5,28.79,West,270,5.6,6.5,43,0.00,,---,0.00,VWS V14.01,2013-05-06 23:15:00,
2013-05-06 18:17:00,69.8,46.3,28.79,WSW,248,3.6,3.8,43,0.00,,---,0.00,VWS V14.01,2013-05-06 23:17:00,
2013-05-06 18:20:00,70.0,46.5,28.79,WNW,292,2.2,5.6,43,0.00,,---,0.00,VWS V14.01,2013-05-06 23:20:00,
2013-05-06 18:22:00,69.6,46.2,28.79,WNW,292,3.1,4.3,43,0.00,,---,0.00,VWS V14.01,2013-05-06 23:22:00,
2013-05-06 18:25:00,69.8,46.3,28.79,West,270,3.8,3.8,43,0.00,,---,0.00,VWS V14.01,2013-05-06 23:25:00,
2013-05-06 18:27:00,69.3,45.8,28.79,WSW,248,3.4,4.0,43,0.00,,---,0.00,VWS V14.01,2013-05-06 23:27:00,
2013-05-06 18:30:00,69.4,46.0,28.79,West,270,3.1,4.3,43,0.00,,---,0.00,VWS V14.01,2013-05-06 23:30:00,
2013-05-06 18:32:00,68.5,45.8,28.79,WSW,248,4.3,4.3,44,0.00,,---,0.00,VWS V14.01,2013-05-06 23:32:00,
2013-05-06 18:35:00,69.1,45.7,28.79,WSW,248,3.1,4.0,43,0.00,,---,0.00,VWS V14.01,2013-05-06 23:35:00,
2013-05-06 18:37:00,68.0,45.9,28.79,WSW,248,3.6,3.8,45,0.00,,---,0.00,VWS V14.01,2013-05-06 23:37:00,
2013-05-06 18:40:00,68.2,45.5,28.79,WSW,248,3.4,4.5,44,0.00,,---,0.00,VWS V14.01,2013-05-06 23:40:00,
2013-05-06 18:42:00,68.2,46.0,28.79,WSW,248,2.5,3.1,45,0.00,,---,0.00,VWS V14.01,2013-05-06 23:42:00,
2013-05-06 18:45:00,68.0,45.9,28.79,SW,225,2.7,4.5,45,0.00,,---,0.00,VWS V14.01,2013-05-06 23:45:00,
2013-05-06 18:47:00,68.5,45.8,28.79,WSW,248,1.6,3.8,44,0.00,,---,0.00,VWS V14.01,2013-05-06 23:47:00,
2013-05-06 18:50:00,68.4,46.2,28.79,WNW,292,3.6,4.3,45,0.00,,---,0.00,VWS V14.01,2013-05-06 23:50:00,
2013-05-06 18:52:00,68.5,45.8,28.79,WSW,248,2.5,3.1,44,0.00,,---,0.00,VWS V14.01,2013-05-06 23:52:00,
2013-05-06 18:55:00,68.5,45.8,28.79,WSW,248,3.1,3.8,44,0.00,,---,0.00,VWS V14.01,2013-05-06 23:55:00,
2013-05-06 18:57:00,68.5,45.8,28.79,North,0,1.1,2.9,44,0.00,,---,0.00,VWS V14.01,2013-05-06 23:57:00,
2013-05-06 19:00:00,68.5,45.8,28.79,WSW,248,2.2,3.1,44,0.00,,---,0.00,VWS V14.01,2013-05-07 00:00:00,
2013-05-06 19:02:00,68.4,46.2,28.79,WSW,248,6.0,6.0,45,0.00,,---,0.00,VWS V14.01,2013-05-07 00:02:00,
2013-05-06 19:05:00,68.5,45.8,28.79,West,270,2.7,3.1,44,0.00,,---,0.00,VWS V14.01,2013-05-07 00:05:00,
2013-05-06 19:07:00,68.2,46.0,28.79,WNW,292,2.7,5.6,45,0.00,,---,0.00,VWS V14.01,2013-05-07 00:07:00,
2013-05-06 19:10:00,68.4,46.2,28.79,WSW,248,3.8,6.0,45,0.00,,---,0.00,VWS V14.01,2013-05-07 00:10:00,
2013-05-06 19:12:00,68.0,45.9,28.79,WSW,248,2.0,4.0,45,0.00,,---,0.00,VWS V14.01,2013-05-07 00:12:00,
2013-05-06 19:15:00,68.0,45.9,28.79,West,270,4.0,5.6,45,0.00,,---,0.00,VWS V14.01,2013-05-07 00:15:00,
2013-05-06 19:17:00,67.8,46.3,28.79,WSW,248,3.1,3.6,46,0.00,,---,0.00,VWS V14.01,2013-05-07 00:17:00,
2013-05-06 19:20:00,67.8,45.7,28.79,West,270,3.1,4.0,45,0.00,,---,0.00,VWS V14.01,2013-05-07 00:20:00,
2013-05-06 19:22:00,67.5,46.0,28.79,West,270,4.0,5.8,46,0.00,,---,0.00,VWS V14.01,2013-05-07 00:22:00,
2013-05-06 19:25:00,67.6,46.1,28.79,WNW,292,2.9,4.3,46,0.00,,---,0.00,VWS V14.01,2013-05-07 00:25:00,
2013-05-06 19:27:00,67.3,45.8,28.79,West,270,4.3,6.3,46,0.00,,---,0.00,VWS V14.01,2013-05-07 00:27:00,
2013-05-06 19:30:00,67.3,45.8,28.79,WSW,248,3.4,5.8,46,0.00,,---,0.00,VWS V14.01,2013-05-07 00:30:00,
2013-05-06 19:32:00,67.1,45.7,28.79,WSW,248,3.4,4.9,46,0.00,,---,0.00,VWS V14.01,2013-05-07 00:32:00,
2013-05-06 19:35:00,67.3,45.8,28.79,West,270,4.9,6.3,46,0.00,,---,0.00,VWS V14.01,2013-05-07 00:35:00,
2013-05-06 19:37:00,66.7,45.3,28.79,WSW,248,3.1,3.8,46,0.00,,---,0.00,VWS V14.01,2013-05-07 00:37:00,
2013-05-06 19:40:00,66.9,45.5,28.79,West,270,3.1,4.9,46,0.00,,---,0.00,VWS V14.01,2013-05-07 00:40:00,
2013-05-06 19:42:00,66.6,45.7,28.79,WNW,292,2.5,3.1,47,0.00,,---,0.00,VWS V14.01,2013-05-07 00:42:00,
2013-05-06 19:45:00,66.7,45.9,28.79,West,270,2.2,3.8,47,0.00,,---,0.00,VWS V14.01,2013-05-07 00:45:00,
2013-05-06 19:47:00,66.4,45.6,28.79,WNW,292,2.5,3.4,47,0.00,,---,0.00,VWS V14.01,2013-05-07 00:47:00,
2013-05-06 19:50:00,66.6,45.7,28.79,WNW,292,3.4,3.4,47,0.00,,---,0.00,VWS V14.01,2013-05-07 00:50:00,
2013-05-06 19:52:00,66.2,45.4,28.79,WNW,292,1.3,2.5,47,0.00,,---,0.00,VWS V14.01,2013-05-07 00:52:00,
2013-05-06 19:55:00,66.2,45.4,28.79,WNW,292,2.2,3.4,47,0.00,,---,0.00,VWS V14.01,2013-05-07 00:55:00,
2013-05-06 19:56:00,65.8,45.6,28.79,West,270,2.2,2.2,48,0.00,,---,0.00,VWS V14.01,2013-05-07 00:56:00,
2013-05-06 20:00:00,66.0,45.8,28.79,WNW,292,1.3,2.5,48,0.00,,---,0.00,VWS V14.01,2013-05-07 01:00:00,
2013-05-06 20:01:00,65.5,45.3,28.79,WSW,248,2.7,3.4,48,0.00,,---,0.00,VWS V14.01,2013-05-07 01:01:00,
2013-05-06 20:05:00,65.7,45.5,28.79,WSW,248,2.5,2.7,48,0.00,,---,0.00,VWS V14.01,2013-05-07 01:05:00,
2013-05-06 20:06:00,64.9,45.3,28.79,West,270,1.6,3.6,49,0.00,,---,0.00,VWS V14.01,2013-05-07 01:06:00,
2013-05-06 20:10:00,65.3,45.7,28.79,West,270,3.6,3.6,49,0.00,,---,0.00,VWS V14.01,2013-05-07 01:10:00,
2013-05-06 20:11:00,64.4,45.4,28.79,West,270,2.0,2.5,50,0.00,,---,0.00,VWS V14.01,2013-05-07 01:11:00,
2013-05-06 20:15:00,64.6,45.0,28.79,West,270,2.0,3.6,49,0.00,,---,0.00,VWS V14.01,2013-05-07 01:15:00,
2013-05-06 20:16:00,64.0,45.6,28.79,West,270,1.6,2.5,51,0.00,,---,0.00,VWS V14.01,2013-05-07 01:16:00,
2013-05-06 20:20:00,64.2,45.7,28.79,West,270,1.6,2.5,51,0.00,,---,0.00,VWS V14.01,2013-05-07 01:20:00,
2013-05-06 20:21:00,63.9,45.4,28.79,WNW,292,1.6,2.0,51,0.00,,---,0.00,VWS V14.01,2013-05-07 01:21:00,
2013-05-06 20:25:00,64.0,45.6,28.79,WNW,292,2.0,2.5,51,0.00,,---,0.00,VWS V14.01,2013-05-07 01:25:00,
2013-05-06 20:26:00,63.0,44.6,28.79,WNW,292,0.9,1.1,51,0.00,,---,0.00,VWS V14.01,2013-05-07 01:26:00,
2013-05-06 20:30:00,63.5,45.1,28.79,WNW,292,0.9,2.0,51,0.00,,---,0.00,VWS V14.01,2013-05-07 01:30:00,
2013-05-06 20:31:00,62.8,44.4,28.79,WNW,292,1.1,1.1,51,0.00,,---,0.00,VWS V14.01,2013-05-07 01:31:00,
2013-05-06 20:35:00,62.8,44.4,28.79,WNW,292,0.0,1.1,51,0.00,,---,0.00,VWS V14.01,2013-05-07 01:35:00,
2013-05-06 20:36:00,61.9,44.6,28.79,WNW,292,1.1,1.6,53,0.00,,---,0.00,VWS V14.01,2013-05-07 01:36:00,
2013-05-06 20:40:00,62.1,44.2,28.79,WNW,292,1.3,1.3,52,0.00,,---,0.00,VWS V14.01,2013-05-07 01:40:00,
2013-05-06 20:41:00,61.9,45.5,28.79,WNW,292,1.6,2.2,55,0.00,,---,0.00,VWS V14.01,2013-05-07 01:41:00,
2013-05-06 20:45:00,61.9,45.1,28.79,WNW,292,1.6,1.6,54,0.00,,---,0.00,VWS V14.01,2013-05-07 01:45:00,
2013-05-06 20:46:00,61.3,45.0,28.79,WNW,292,2.0,2.0,55,0.00,,---,0.00,VWS V14.01,2013-05-07 01:46:00,
2013-05-06 20:50:00,61.7,45.9,28.79,WNW,292,1.3,2.2,56,0.00,,---,0.00,VWS V14.01,2013-05-07 01:50:00,
2013-05-06 20:51:00,60.6,44.8,28.79,WNW,292,1.3,2.0,56,0.00,,---,0.00,VWS V14.01,2013-05-07 01:51:00,
2013-05-06 20:56:00,59.7,44.0,28.79,WNW,292,0.0,1.3,56,0.00,,---,0.00,VWS V14.01,2013-05-07 01:56:00,
2013-05-06 21:00:00,60.1,44.3,28.79,WNW,292,1.3,2.0,56,0.00,,---,0.00,VWS V14.01,2013-05-07 02:00:00,
2013-05-06 21:01:00,58.1,43.0,28.79,WNW,292,0.0,0.0,57,0.00,,---,0.00,VWS V14.01,2013-05-07 02:01:00,
2013-05-06 21:05:00,59.0,43.3,28.79,WNW,292,0.0,1.3,56,0.00,,---,0.00,VWS V14.01,2013-05-07 02:05:00,
2013-05-06 21:06:00,57.4,42.7,28.79,WNW,292,0.0,0.0,58,0.00,,---,0.00,VWS V14.01,2013-05-07 02:06:00,
2013-05-06 21:10:00,57.6,42.9,28.79,WNW,292,0.0,0.0,58,0.00,,---,0.00,VWS V14.01,2013-05-07 02:10:00,
2013-05-06 21:11:00,56.8,43.5,28.79,WNW,292,0.0,0.0,61,0.00,,---,0.00,VWS V14.01,2013-05-07 02:11:00,
2013-05-06 21:15:00,56.8,42.7,28.79,WNW,292,0.0,0.0,59,0.00,,---,0.00,VWS V14.01,2013-05-07 02:15:00,
2013-05-06 21:16:00,56.7,43.8,28.79,WNW,292,0.0,0.0,62,0.00,,---,0.00,VWS V14.01,2013-05-07 02:16:00,
2013-05-06 21:20:00,56.7,43.8,28.79,WNW,292,0.0,0.0,62,0.00,,---,0.00,VWS V14.01,2013-05-07 02:20:00,
2013-05-06 21:21:00,56.1,44.1,28.79,WNW,292,0.0,0.0,64,0.00,,---,0.00,VWS V14.01,2013-05-07 02:21:00,
2013-05-06 21:25:00,56.3,43.9,28.79,WNW,292,0.0,0.0,63,0.00,,---,0.00,VWS V14.01,2013-05-07 02:25:00,
2013-05-06 21:26:00,55.8,43.8,28.79,WNW,292,0.0,0.0,64,0.00,,---,0.00,VWS V14.01,2013-05-07 02:26:00,
2013-05-06 21:30:00,55.9,44.0,28.79,WNW,292,0.0,0.0,64,0.00,,---,0.00,VWS V14.01,2013-05-07 02:30:00,
2013-05-06 21:31:00,55.0,43.5,28.79,WNW,292,0.0,0.0,65,0.00,,---,0.00,VWS V14.01,2013-05-07 02:31:00,
2013-05-06 21:35:00,55.6,43.6,28.79,WNW,292,0.0,0.0,64,0.00,,---,0.00,VWS V14.01,2013-05-07 02:35:00,
2013-05-06 21:36:00,54.1,43.0,28.79,WNW,292,1.6,2.0,66,0.00,,---,0.00,VWS V14.01,2013-05-07 02:36:00,
2013-05-06 21:40:00,54.5,43.0,28.79,WNW,292,2.0,2.2,65,0.00,,---,0.00,VWS V14.01,2013-05-07 02:40:00,
2013-05-06 21:41:00,53.8,43.1,28.79,WNW,292,1.3,2.0,67,0.00,,---,0.00,VWS V14.01,2013-05-07 02:41:00,
2013-05-06 21:45:00,54.0,43.3,28.79,WNW,292,2.0,2.0,67,0.00,,---,0.00,VWS V14.01,2013-05-07 02:45:00,
2013-05-06 21:46:00,53.6,43.3,28.79,WNW,292,0.0,0.0,68,0.00,,---,0.00,VWS V14.01,2013-05-07 02:46:00,
2013-05-06 21:50:00,53.6,43.3,28.79,WNW,292,0.0,2.0,68,0.00,,---,0.00,VWS V14.01,2013-05-07 02:50:00,
2013-05-06 21:51:00,53.8,43.9,28.76,WNW,292,0.0,0.0,69,0.00,,---,0.00,VWS V14.01,2013-05-07 02:51:00,
2013-05-06 21:55:00,53.8,43.9,28.76,WNW,292,0.0,0.0,69,0.00,,---,0.00,VWS V14.01,2013-05-07 02:55:00,
2013-05-06 21:56:00,54.0,44.4,28.76,WNW,292,0.0,0.0,70,0.00,,---,0.00,VWS V14.01,2013-05-07 02:56:00,
2013-05-06 22:00:00,54.0,44.4,28.76,WNW,292,0.0,0.0,70,0.00,,---,0.00,VWS V14.01,2013-05-07 03:00:00,
2013-05-06 22:01:00,53.6,44.1,28.76,WNW,292,1.6,2.0,70,0.00,,---,0.00,VWS V14.01,2013-05-07 03:01:00,
2013-05-06 22:05:00,53.8,44.2,28.76,WNW,292,0.0,0.0,70,0.00,,---,0.00,VWS V14.01,2013-05-07 03:05:00,
2013-05-06 22:06:00,53.1,43.9,28.76,WNW,292,0.0,1.3,71,0.00,,---,0.00,VWS V14.01,2013-05-07 03:06:00,
2013-05-06 22:10:00,53.6,44.4,28.76,WNW,292,1.3,2.0,71,0.00,,---,0.00,VWS V14.01,2013-05-07 03:10:00,
2013-05-06 22:11:00,52.2,43.4,28.76,WNW,292,0.0,1.3,72,0.00,,---,0.00,VWS V14.01,2013-05-07 03:11:00,
2013-05-06 22:16:00,51.8,43.8,28.76,WNW,292,0.0,0.0,74,0.00,,---,0.00,VWS V14.01,2013-05-07 03:16:00,
2013-05-06 22:20:00,52.0,43.6,28.76,WNW,292,0.0,1.3,73,0.00,,---,0.00,VWS V14.01,2013-05-07 03:20:00,
2013-05-06 22:21:00,51.8,43.8,28.79,ENE,68,2.5,2.5,74,0.00,,---,0.00,VWS V14.01,2013-05-07 03:21:00,
2013-05-06 22:25:00,51.8,43.8,28.79,WNW,292,0.0,0.0,74,0.00,,---,0.00,VWS V14.01,2013-05-07 03:25:00,
2013-05-06 22:26:00,51.4,43.4,28.79,ENE,68,2.2,2.5,74,0.00,,---,0.00,VWS V14.01,2013-05-07 03:26:00,
2013-05-06 22:30:00,51.6,43.6,28.79,ENE,68,2.2,2.7,74,0.00,,---,0.00,VWS V14.01,2013-05-07 03:30:00,
2013-05-06 22:31:00,51.4,43.8,28.79,ENE,68,0.0,0.9,75,0.00,,---,0.00,VWS V14.01,2013-05-07 03:31:00,
2013-05-06 22:35:00,51.4,43.4,28.79,ENE,68,0.9,2.5,74,0.00,,---,0.00,VWS V14.01,2013-05-07 03:35:00,
2013-05-06 22:36:00,51.3,43.6,28.79,WNW,292,0.0,0.9,75,0.00,,---,0.00,VWS V14.01,2013-05-07 03:36:00,
2013-05-06 22:40:00,51.3,43.3,28.79,North,0,0.9,1.1,74,0.00,,---,0.00,VWS V14.01,2013-05-07 03:40:00,
2013-05-06 22:41:00,50.7,42.8,28.79,WNW,292,0.0,0.0,74,0.00,,---,0.00,VWS V14.01,2013-05-07 03:41:00,
2013-05-06 22:45:00,51.3,43.6,28.79,WNW,292,0.0,0.9,75,0.00,,---,0.00,VWS V14.01,2013-05-07 03:45:00,
2013-05-06 22:46:00,50.2,42.2,28.79,WNW,292,0.0,0.0,74,0.00,,---,0.00,VWS V14.01,2013-05-07 03:46:00,
2013-05-06 22:50:00,50.2,42.2,28.79,WNW,292,0.0,0.0,74,0.00,,---,0.00,VWS V14.01,2013-05-07 03:50:00,
2013-05-06 22:51:00,50.2,42.9,28.79,NE,45,0.0,0.0,76,0.00,,---,0.00,VWS V14.01,2013-05-07 03:51:00,
2013-05-06 22:55:00,50.0,42.4,28.79,NE,45,0.0,0.0,75,0.00,,---,0.00,VWS V14.01,2013-05-07 03:55:00,
2013-05-06 22:56:00,50.2,42.9,28.79,NE,45,0.0,0.0,76,0.00,,---,0.00,VWS V14.01,2013-05-07 03:56:00,
2013-05-06 23:00:00,50.2,42.9,28.79,NE,45,0.0,0.0,76,0.00,,---,0.00,VWS V14.01,2013-05-07 04:00:00,
2013-05-06 23:01:00,50.4,43.8,28.79,East,90,1.6,1.6,78,0.00,,---,0.00,VWS V14.01,2013-05-07 04:01:00,
2013-05-06 23:06:00,49.5,42.9,28.79,East,90,1.3,2.5,78,0.00,,---,0.00,VWS V14.01,2013-05-07 04:06:00,
2013-05-06 23:10:00,50.0,43.4,28.79,East,90,2.5,2.9,78,0.00,,---,0.00,VWS V14.01,2013-05-07 04:10:00,
2013-05-06 23:11:00,48.9,42.7,28.79,SW,225,0.0,0.0,79,0.00,,---,0.00,VWS V14.01,2013-05-07 04:11:00,
2013-05-06 23:15:00,49.1,42.9,28.79,East,90,0.0,2.5,79,0.00,,---,0.00,VWS V14.01,2013-05-07 04:15:00,
2013-05-06 23:16:00,48.9,43.0,28.79,SW,225,0.0,0.0,80,0.00,,---,0.00,VWS V14.01,2013-05-07 04:16:00,
2013-05-06 23:20:00,48.9,42.7,28.79,SW,225,0.0,0.0,79,0.00,,---,0.00,VWS V14.01,2013-05-07 04:20:00,
2013-05-06 23:21:00,48.6,42.0,28.79,SW,225,1.1,1.1,78,0.00,,---,0.00,VWS V14.01,2013-05-07 04:21:00,
2013-05-06 23:25:00,48.7,42.5,28.79,SW,225,0.0,0.0,79,0.00,,---,0.00,VWS V14.01,2013-05-07 04:25:00,
2013-05-06 23:26:00,48.4,42.2,28.79,NE,45,1.6,2.7,79,0.00,,---,0.00,VWS V14.01,2013-05-07 04:26:00,
2013-05-06 23:30:00,48.6,42.0,28.79,NE,45,2.7,2.7,78,0.00,,---,0.00,VWS V14.01,2013-05-07 04:30:00,
2013-05-06 23:31:00,48.6,42.7,28.79,NE,45,0.0,0.0,80,0.00,,---,0.00,VWS V14.01,2013-05-07 04:31:00,
2013-05-06 23:35:00,48.6,42.7,28.79,NE,45,0.0,2.7,80,0.00,,---,0.00,VWS V14.01,2013-05-07 04:35:00,
2013-05-06 23:36:00,48.4,42.5,28.79,NE,45,0.0,0.0,80,0.00,,---,0.00,VWS V14.01,2013-05-07 04:36:00,
2013-05-06 23:40:00,48.6,42.7,28.79,NE,45,0.0,0.0,80,0.00,,---,0.00,VWS V14.01,2013-05-07 04:40:00,
2013-05-06 23:41:00,48.4,42.8,28.79,NE,45,0.0,0.0,81,0.00,,---,0.00,VWS V14.01,2013-05-07 04:41:00,
2013-05-06 23:45:00,48.4,42.5,28.79,NE,45,0.0,0.0,80,0.00,,---,0.00,VWS V14.01,2013-05-07 04:45:00,
2013-05-06 23:46:00,48.2,43.0,28.79,NE,45,0.0,0.0,82,0.00,,---,0.00,VWS V14.01,2013-05-07 04:46:00,
2013-05-06 23:50:00,48.2,42.7,28.79,NE,45,0.0,0.0,81,0.00,,---,0.00,VWS V14.01,2013-05-07 04:50:00,
2013-05-06 23:51:00,48.2,43.0,28.79,ENE,68,0.0,0.0,82,0.00,,---,0.00,VWS V14.01,2013-05-07 04:51:00,
2013-05-06 23:55:00,48.2,43.0,28.79,ENE,68,0.0,0.0,82,0.00,,---,0.00,VWS V14.01,2013-05-07 04:55:00,
2013-05-06 23:56:00,48.0,43.1,28.79,ENE,68,0.0,1.6,83,0.00,,---,0.00,VWS V14.01,2013-05-07 04:56:00,